Location: ????????
(48.4751°N, 37.6926°E)
Time: 20:47:43
(UTC+00:00)

Cosmos 1315 Rocket - Pass Details

Date: 20 January 2021
Orbit: 530 x 567 km, 81.2° (Epoch: 01 March)

Event Time Altitude Azimuth Distance (km) Brightness Sun altitude
Rises 14:37:51 0° 352° (N) 2,699 6.2 -5.0°
Reaches altitude 10° 14:40:03 10° 358° (N) 1,808 5.2 -5.4°
Maximum altitude 14:43:56 50° 74° (ENE) 699 3.0 -6.0°
Drops below altitude 10° 14:47:49 10° 151° (SSE) 1,814 5.4 -6.6°
Sets 14:50:02 0° 157° (SSE) 2,709 6.4 -6.9°
